JBU3212 KSYR-KJFK

Flight info

Callsign JBU3212
Flight time 0h 45m
Altitude 27000
Route SYR2 POMPY ARRKK PUCKY1
Aircraft A321/M-SDE3FGHIRWY/LB1

Departure

Time 2026-05-08 01:52
Airport Syracuse Hancock International Airport (KSYR)

Arrival

Time 2026-05-08 02:37
Airport John F. Kennedy International Airport (KJFK)
Time Latitude Longitude Altitude Speed Heading
2026-05-08 01:10 43.11252 -76.11006 424 ft 0 kts 358°
2026-05-08 01:44 43.11240 -76.11005 416 ft 3 kts 358°
2026-05-08 01:44 43.11221 -76.11000 418 ft 3 kts 328°
2026-05-08 01:44 43.11207 -76.10983 412 ft 3 kts 297°
2026-05-08 01:44 43.11201 -76.10959 412 ft 2 kts 268°
2026-05-08 01:45 43.11201 -76.10956 412 ft 0 kts 268°
2026-05-08 01:46 43.11201 -76.10963 412 ft 2 kts 270°
2026-05-08 01:47 43.11186 -76.11025 421 ft 14 kts 245°
2026-05-08 01:47 43.11126 -76.11162 414 ft 16 kts 224°
2026-05-08 01:47 43.11050 -76.11157 423 ft 12 kts 155°
2026-05-08 01:48 43.11003 -76.10800 422 ft 27 kts 88°
2026-05-08 01:48 43.11012 -76.10545 425 ft 27 kts 87°
2026-05-08 01:48 43.11021 -76.10283 417 ft 28 kts 87°
2026-05-08 01:48 43.11025 -76.10165 424 ft 0 kts 87°
2026-05-08 01:49 43.11026 -76.10135 424 ft 9 kts 87°
2026-05-08 01:49 43.11031 -76.09977 415 ft 24 kts 88°
2026-05-08 01:49 43.11039 -76.09737 426 ft 25 kts 87°
2026-05-08 01:49 43.11044 -76.09498 425 ft 26 kts 85°
2026-05-08 01:50 43.11044 -76.09296 416 ft 3 kts 116°
2026-05-08 01:50 43.11029 -76.09278 419 ft 4 kts 149°
2026-05-08 01:50 43.10979 -76.09269 428 ft 11 kts 180°
2026-05-08 01:50 43.10927 -76.09358 421 ft 15 kts 265°
2026-05-08 01:51 43.10926 -76.09376 428 ft 4 kts 266°
2026-05-08 01:51 43.10914 -76.09778 415 ft 79 kts 267°
2026-05-08 01:51 43.10880 -76.10835 425 ft 140 kts 268°
2026-05-08 01:51 43.10833 -76.12310 766 ft 161 kts 268°
2026-05-08 01:52 43.10796 -76.13897 1407 ft 169 kts 268°
2026-05-08 01:52 43.10741 -76.15542 1935 ft 182 kts 265°
2026-05-08 01:52 43.10213 -76.17217 2151 ft 209 kts 229°
2026-05-08 01:52 43.08844 -76.18130 2320 ft 240 kts 186°
2026-05-08 01:53 43.07165 -76.17587 2703 ft 263 kts 149°
2026-05-08 01:53 43.05723 -76.15985 3399 ft 271 kts 135°
2026-05-08 01:53 43.04453 -76.14044 4171 ft 276 kts 131°
2026-05-08 01:53 43.03220 -76.12001 4957 ft 281 kts 131°
2026-05-08 01:54 43.01957 -76.09943 5733 ft 285 kts 133°
2026-05-08 01:54 43.00661 -76.07920 6503 ft 289 kts 134°
2026-05-08 01:54 42.99295 -76.05878 7240 ft 293 kts 136°
2026-05-08 01:54 42.97887 -76.03840 7994 ft 297 kts 137°
2026-05-08 01:55 42.96443 -76.01792 8714 ft 302 kts 138°
2026-05-08 01:55 42.94970 -75.99721 9436 ft 306 kts 139°
2026-05-08 01:55 42.93465 -75.97650 10140 ft 309 kts 144°
2026-05-08 01:55 42.91730 -75.95964 10800 ft 307 kts 157°
2026-05-08 01:56 42.89797 -75.94481 10981 ft 330 kts 157°
2026-05-08 01:56 42.87724 -75.92917 11129 ft 352 kts 157°
2026-05-08 01:56 42.85524 -75.91259 11452 ft 366 kts 156°
2026-05-08 01:56 42.83286 -75.89562 12089 ft 370 kts 156°
2026-05-08 01:57 42.81030 -75.87844 12789 ft 373 kts 156°
2026-05-08 01:57 42.78752 -75.86104 13513 ft 377 kts 156°
2026-05-08 01:57 42.76460 -75.84351 14164 ft 380 kts 156°
2026-05-08 01:57 42.74151 -75.82591 14796 ft 382 kts 156°
2026-05-08 01:58 42.71821 -75.80818 15431 ft 385 kts 156°
2026-05-08 01:58 42.69475 -75.79035 16088 ft 388 kts 156°
2026-05-08 01:58 42.67105 -75.77234 16738 ft 391 kts 156°
2026-05-08 01:58 42.64726 -75.75432 17374 ft 394 kts 156°
2026-05-08 01:59 42.62322 -75.73612 18013 ft 397 kts 156°
2026-05-08 01:59 42.59900 -75.71781 18576 ft 400 kts 157°
2026-05-08 01:59 42.57463 -75.69938 19132 ft 403 kts 157°
2026-05-08 01:59 42.55011 -75.68082 19697 ft 405 kts 158°
2026-05-08 02:00 42.52539 -75.66212 20264 ft 407 kts 158°
2026-05-08 02:00 42.50057 -75.64338 20805 ft 410 kts 159°
2026-05-08 02:00 42.47562 -75.62464 21359 ft 412 kts 159°
2026-05-08 02:00 42.45043 -75.60575 21869 ft 414 kts 160°
2026-05-08 02:01 42.42519 -75.58685 22374 ft 416 kts 160°
2026-05-08 02:01 42.39982 -75.56783 22860 ft 418 kts 161°
2026-05-08 02:01 42.37432 -75.54869 23347 ft 421 kts 161°
2026-05-08 02:01 42.34862 -75.52940 23741 ft 423 kts 162°
2026-05-08 02:02 42.32317 -75.51033 24091 ft 425 kts 162°
2026-05-08 02:02 42.29686 -75.49068 24441 ft 429 kts 162°
2026-05-08 02:02 42.27068 -75.47110 24760 ft 432 kts 162°
2026-05-08 02:02 42.24461 -75.45163 25078 ft 435 kts 162°
2026-05-08 02:03 42.21805 -75.43185 25373 ft 438 kts 163°
2026-05-08 02:03 42.19127 -75.41192 25711 ft 441 kts 163°
2026-05-08 02:03 42.16395 -75.39162 26020 ft 444 kts 163°
2026-05-08 02:03 42.13721 -75.37175 26335 ft 448 kts 163°
2026-05-08 02:04 42.11071 -75.34811 26558 ft 468 kts 152°
2026-05-08 02:04 42.08721 -75.31660 26832 ft 489 kts 139°
2026-05-08 02:04 42.06842 -75.27750 26900 ft 506 kts 123°
2026-05-08 02:04 42.05656 -75.23251 26910 ft 518 kts 110°
2026-05-08 02:05 42.05051 -75.18437 26910 ft 524 kts 103°
2026-05-08 02:05 42.04581 -75.13584 26910 ft 523 kts 104°
2026-05-08 02:05 42.04063 -75.08750 26915 ft 523 kts 104°
2026-05-08 02:05 42.03520 -75.03909 26910 ft 522 kts 105°
2026-05-08 02:06 42.02979 -74.99083 26902 ft 522 kts 105°
2026-05-08 02:06 42.02450 -74.94256 26909 ft 522 kts 104°
2026-05-08 02:06 42.01933 -74.89436 26900 ft 522 kts 104°
2026-05-08 02:06 42.01422 -74.84610 26903 ft 522 kts 105°
2026-05-08 02:07 42.00912 -74.79773 26902 ft 522 kts 104°
2026-05-08 02:07 42.00398 -74.74941 26900 ft 522 kts 104°
2026-05-08 02:07 42.00055 -74.71754 26894 ft 522 kts 104°
2026-05-08 02:07 41.99759 -74.69035 26892 ft 521 kts 105°
2026-05-08 02:08 41.99608 -74.67682 26888 ft 521 kts 104°
2026-05-08 02:08 41.99407 -74.65093 26878 ft 524 kts 98°
2026-05-08 02:08 41.99296 -74.61486 26869 ft 524 kts 99°
2026-05-08 02:08 41.98912 -74.56556 26876 ft 521 kts 105°
2026-05-08 02:09 41.98049 -74.51976 26875 ft 505 kts 120°
2026-05-08 02:09 41.96602 -74.47739 26872 ft 496 kts 127°
2026-05-08 02:09 41.94937 -74.43718 26866 ft 491 kts 131°
2026-05-08 02:09 41.93110 -74.39866 26860 ft 484 kts 135°
2026-05-08 02:10 41.91162 -74.36194 26851 ft 482 kts 136°
2026-05-08 02:10 41.89185 -74.32567 26844 ft 481 kts 137°
2026-05-08 02:10 41.87174 -74.28985 26843 ft 480 kts 138°
2026-05-08 02:10 41.85139 -74.25445 26842 ft 479 kts 139°
2026-05-08 02:11 41.83089 -74.21918 26842 ft 479 kts 139°
2026-05-08 02:11 41.81034 -74.18390 26843 ft 479 kts 139°
2026-05-08 02:11 41.78990 -74.14867 26846 ft 478 kts 139°
2026-05-08 02:11 41.76769 -74.11637 26845 ft 464 kts 149°
2026-05-08 02:12 41.75148 -74.09832 26849 ft 453 kts 156°
2026-05-08 02:12 41.72520 -74.07631 26853 ft 437 kts 165°
2026-05-08 02:12 41.69799 -74.05930 26680 ft 428 kts 168°
2026-05-08 02:12 41.67076 -74.04587 26264 ft 405 kts 179°
2026-05-08 02:13 41.64383 -74.04194 25997 ft 378 kts 194°
2026-05-08 02:13 41.61812 -74.04578 25751 ft 372 kts 198°
2026-05-08 02:13 41.59245 -74.05046 25490 ft 371 kts 198°
2026-05-08 02:13 41.56690 -74.05507 25243 ft 370 kts 198°
2026-05-08 02:14 41.54139 -74.05944 25001 ft 370 kts 198°
2026-05-08 02:14 41.51587 -74.06359 24759 ft 369 kts 197°
2026-05-08 02:14 41.49043 -74.06762 24513 ft 368 kts 197°
2026-05-08 02:14 41.46508 -74.07153 24281 ft 367 kts 197°
2026-05-08 02:15 41.43975 -74.07534 24045 ft 366 kts 197°
2026-05-08 02:15 41.41452 -74.07910 23808 ft 365 kts 197°
2026-05-08 02:15 41.38945 -74.08329 23573 ft 360 kts 200°
2026-05-08 02:15 41.36549 -74.09099 23314 ft 350 kts 207°
2026-05-08 02:16 41.34300 -74.10259 23024 ft 343 kts 213°
2026-05-08 02:16 41.32223 -74.11756 22740 ft 337 kts 219°
2026-05-08 02:16 41.30264 -74.13446 22474 ft 335 kts 219°
2026-05-08 02:16 41.28306 -74.15122 22194 ft 335 kts 219°
2026-05-08 02:17 41.26343 -74.16795 21929 ft 334 kts 219°
2026-05-08 02:17 41.24391 -74.18453 21663 ft 333 kts 219°
2026-05-08 02:17 41.22438 -74.20110 21397 ft 333 kts 219°
2026-05-08 02:17 41.20494 -74.21762 21139 ft 332 kts 218°
2026-05-08 02:18 41.18551 -74.23413 20954 ft 331 kts 218°
2026-05-08 02:18 41.16620 -74.25057 20802 ft 330 kts 218°
2026-05-08 02:18 41.14685 -74.26706 20645 ft 330 kts 218°
2026-05-08 02:18 41.12761 -74.28346 20496 ft 329 kts 218°
2026-05-08 02:19 41.10836 -74.29981 20345 ft 328 kts 218°
2026-05-08 02:19 41.08910 -74.31614 20183 ft 328 kts 218°
2026-05-08 02:19 41.06914 -74.33031 20039 ft 336 kts 206°
2026-05-08 02:19 41.04557 -74.33527 19892 ft 355 kts 187°
2026-05-08 02:20 41.02092 -74.32779 19738 ft 379 kts 165°
2026-05-08 02:20 40.99891 -74.30667 19588 ft 406 kts 141°
2026-05-08 02:20 40.98181 -74.27621 19443 ft 416 kts 133°
2026-05-08 02:20 40.96578 -74.24421 19296 ft 417 kts 131°
2026-05-08 02:21 40.95023 -74.21187 19135 ft 417 kts 130°
2026-05-08 02:21 40.93484 -74.17942 18981 ft 416 kts 130°
2026-05-08 02:21 40.91857 -74.14824 18580 ft 406 kts 138°
2026-05-08 02:21 40.89966 -74.12159 18187 ft 391 kts 147°
2026-05-08 02:22 40.87856 -74.09989 17750 ft 379 kts 156°
2026-05-08 02:22 40.85600 -74.08243 17312 ft 373 kts 160°
2026-05-08 02:22 40.83340 -74.06568 16887 ft 373 kts 159°
2026-05-08 02:22 40.81085 -74.04885 16462 ft 372 kts 159°
2026-05-08 02:23 40.78833 -74.03195 16043 ft 372 kts 159°
2026-05-08 02:23 40.76626 -74.01415 15653 ft 377 kts 152°
2026-05-08 02:23 40.74618 -73.99139 15244 ft 385 kts 141°
2026-05-08 02:23 40.72898 -73.96397 14833 ft 389 kts 133°
2026-05-08 02:24 40.71264 -73.93564 14453 ft 388 kts 133°
2026-05-08 02:24 40.69626 -73.90748 14061 ft 387 kts 133°
2026-05-08 02:24 40.67989 -73.87947 13670 ft 385 kts 133°
2026-05-08 02:24 40.66367 -73.85146 13249 ft 383 kts 131°
2026-05-08 02:25 40.64834 -73.82310 12817 ft 381 kts 129°
2026-05-08 02:25 40.63360 -73.79421 12393 ft 378 kts 127°
2026-05-08 02:25 40.61927 -73.76533 11977 ft 375 kts 127°
2026-05-08 02:25 40.60511 -73.73668 11567 ft 371 kts 127°
2026-05-08 02:26 40.59104 -73.70845 11161 ft 368 kts 126°
2026-05-08 02:26 40.57693 -73.68043 10760 ft 365 kts 126°
2026-05-08 02:26 40.56494 -73.65124 10366 ft 364 kts 110°
2026-05-08 02:26 40.56059 -73.61878 9970 ft 360 kts 89°
2026-05-08 02:27 40.56476 -73.58695 9564 ft 351 kts 67°
2026-05-08 02:27 40.57643 -73.55936 9129 ft 341 kts 47°
2026-05-08 02:27 40.59348 -73.53871 8699 ft 327 kts 32°
2026-05-08 02:27 40.61134 -73.52179 8381 ft 303 kts 32°
2026-05-08 02:28 40.62797 -73.50592 8269 ft 292 kts 32°
2026-05-08 02:28 40.64461 -73.49104 8149 ft 287 kts 25°
2026-05-08 02:28 40.66217 -73.47852 8006 ft 286 kts 24°
2026-05-08 02:28 40.67959 -73.46605 7884 ft 285 kts 25°
2026-05-08 02:29 40.69711 -73.45390 7759 ft 284 kts 23°
2026-05-08 02:29 40.71462 -73.44258 7629 ft 283 kts 22°
2026-05-08 02:29 40.73269 -73.43149 7368 ft 284 kts 17°
2026-05-08 02:29 40.75179 -73.42737 6914 ft 274 kts 352°
2026-05-08 02:30 40.76918 -73.43333 6583 ft 249 kts 329°
2026-05-08 02:30 40.78243 -73.44573 6470 ft 224 kts 312°
2026-05-08 02:30 40.79169 -73.46217 5929 ft 227 kts 300°
2026-05-08 02:30 40.80007 -73.48031 5284 ft 233 kts 300°
2026-05-08 02:31 40.80839 -73.49834 4723 ft 227 kts 300°
2026-05-08 02:31 40.81547 -73.51645 4281 ft 217 kts 289°
2026-05-08 02:31 40.81856 -73.53570 3923 ft 214 kts 274°
2026-05-08 02:31 40.81770 -73.55534 3879 ft 216 kts 260°
2026-05-08 02:32 40.81334 -73.57422 3816 ft 215 kts 252°
2026-05-08 02:32 40.80845 -73.59275 3730 ft 214 kts 252°
2026-05-08 02:32 40.80357 -73.61129 3637 ft 213 kts 252°
2026-05-08 02:32 40.79761 -73.62922 3538 ft 215 kts 237°
2026-05-08 02:33 40.78726 -73.64356 3322 ft 219 kts 216°
2026-05-08 02:33 40.77428 -73.65383 2995 ft 218 kts 211°
2026-05-08 02:33 40.76142 -73.66379 2702 ft 218 kts 211°
2026-05-08 02:33 40.74857 -73.67385 2411 ft 218 kts 212°
2026-05-08 02:34 40.73556 -73.68407 2110 ft 217 kts 211°
2026-05-08 02:34 40.72264 -73.69420 1843 ft 213 kts 212°
2026-05-08 02:34 40.71046 -73.70375 1568 ft 195 kts 211°
2026-05-08 02:34 40.69945 -73.71237 1309 ft 175 kts 211°
2026-05-08 02:35 40.68945 -73.72022 1087 ft 160 kts 211°
2026-05-08 02:35 40.68017 -73.72749 854 ft 151 kts 211°
2026-05-08 02:35 40.67130 -73.73444 664 ft 146 kts 210°
2026-05-08 02:35 40.66267 -73.74120 469 ft 144 kts 209°
2026-05-08 02:36 40.65409 -73.74796 259 ft 144 kts 209°
2026-05-08 02:36 40.64560 -73.75462 83 ft 143 kts 209°
2026-05-08 02:36 40.63743 -73.76088 21 ft 120 kts 210°
2026-05-08 02:36 40.63178 -73.76540 22 ft 64 kts 211°
2026-05-08 02:37 40.63054 -73.76635 20 ft 2 kts 212°
2026-05-08 02:37 40.63049 -73.76640 20 ft 2 kts 215°
2026-05-08 02:37 40.63024 -73.76681 20 ft 11 kts 237°
2026-05-08 02:37 40.62964 -73.76814 21 ft 21 kts 239°
2026-05-08 02:38 40.62936 -73.76983 23 ft 19 kts 296°
2026-05-08 02:38 40.63050 -73.77007 20 ft 19 kts 27°
2026-05-08 02:38 40.63212 -73.76947 20 ft 29 kts
2026-05-08 02:38 40.63416 -73.76936 20 ft 29 kts
2026-05-08 02:39 40.63621 -73.76919 20 ft 30 kts
2026-05-08 02:39 40.63828 -73.76914 21 ft 30 kts
2026-05-08 02:39 40.64036 -73.76913 21 ft 30 kts
2026-05-08 02:39 40.64159 -73.76893 21 ft 0 kts
2026-05-08 02:40 40.64167 -73.76891 21 ft 3 kts
2026-05-08 02:40 40.64233 -73.76887 21 ft 18 kts
2026-05-08 02:40 40.64393 -73.76936 20 ft 27 kts 303°
2026-05-08 02:41 40.64449 -73.77169 22 ft 26 kts 292°
2026-05-08 02:41 40.64473 -73.77373 22 ft 14 kts 268°
2026-05-08 02:41 40.64476 -73.77405 20 ft 1 kts 286°
2026-05-08 02:41 40.64502 -73.77432 20 ft 8 kts 354°
2026-05-08 02:42 40.64537 -73.77434 20 ft 0 kts 358°